Wind_Speed
14 14 13 13 12 12 11 11 10 8 7 8 8 8 9 10 11 9 8 7 7 6 6 5 4 3 3 3 4 4 4 4 4 5 5 5 4 4 4 4 4 4 4 4 4 4 4 4 4
15 14 14 13 13 13 11 11 10 8 9 8 8 9 9 10 11 10 9 8 7 7 6 6 5 4 3 3 3 3 3 3 3 3 4 4 4 4 4 4 4 4 4 4 4 4 4 3 3
15 15 14 14 13 13 12 12 11 9 8 8 9 10 10 12 12 11 10 8 7 8 8 7 6 5 4 3 3 2 2 2 2 3 3 3 4 4 4 4 4 4 4 4 4 4 3 3 3
16 15 15 14 13 13 12 13 12 11 10 10 10 11 11 12 13 12 11 9 8 9 9 8 7 6 4 3 3 2 1 1 1 2 3 3 3 4 4 4 4 4 4 4 4 4 3 2 2
16 15 15 14 14 14 14 14 13 12 11 11 11 12 12 13 13 12 12 10 8 8 9 9 8 6 5 4 4 2 1 1 0 1 2 3 4 4 4 5 5 5 4 4 3 3 2 2 2
17 16 15 15 15 15 15 15 14 14 13 12 11 12 14 14 13 12 11 9 8 9 9 10 9 7 6 6 5 4 3 2 1 1 2 3 4 4 5 5 5 5 4 4 3 3 3 2 2
17 16 16 16 16 17 16 15 15 15 15 12 12 13 14 14 13 12 11 10 9 10 10 11 10 9 8 7 6 5 4 3 3 2 2 3 4 5 5 5 5 5 5 4 4 4 4 3 3
17 16 16 16 16 17 17 16 15 14 15 14 13 13 14 14 13 12 11 10 10 10 11 11 11 10 9 9 8 6 5 5 4 4 3 4 5 5 6 6 6 6 6 5 5 5 4 4 4
16 15 15 16 17 17 17 17 16 14 14 13 13 13 15 14 13 12 12 11 10 11 12 12 12 12 10 10 9 7 6 5 5 5 5 5 6 6 6 6 6 6 6 6 5 5 5 5 4
16 16 16 17 17 17 18 18 17 15 14 14 14 15 15 14 14 13 12 11 11 12 12 13 13 13 11 10 10 8 7 6 5 5 5 6 6 6 6 6 6 6 5 5 5 5 5 5 5
16 17 17 17 18 18 18 18 17 15 14 15 16 16 16 15 15 14 14 13 12 13 13 13 13 14 12 11 11 9 8 7 6 6 6 6 7 6 6 6 5 5 5 5 5 4 4 4 5
17 17 17 17 18 18 18 17 16 15 15 15 16 16 16 16 15 14 13 13 12 13 14 14 15 14 13 13 13 10 8 8 7 7 6 6 6 6 5 5 4 4 4 4 4 4 3 3 4
16 16 16 16 16 17 17 16 15 16 16 15 16 16 15 14 14 14 14 13 13 14 15 15 15 15 14 13 13 11 9 9 8 7 6 5 5 5 5 4 4 4 4 4 3 3 3 3 3
16 15 15 15 15 16 16 15 15 15 15 15 16 16 15 14 13 13 13 13 13 15 17 17 16 16 15 14 13 13 11 10 9 7 6 6 5 5 5 4 3 3 3 3 2 2 2 2 2
15 15 14 13 14 14 14 14 14 14 14 14 14 14 13 11 11 11 12 12 13 14 16 17 17 18 15 14 14 14 13 11 10 8 7 6 5 4 4 4 3 2 2 2 2 2 2 2 2
14 14 14 13 13 13 13 11 12 11 12 12 13 14 13 11 11 11 11 12 12 13 15 18 19 18 17 16 15 14 13 12 10 9 8 6 5 5 4 4 2 2 2 2 2 2 2 2 2
15 15 14 14 13 13 12 11 11 11 11 12 14 14 13 12 12 12 12 11 11 12 16 18 19 19 18 18 16 15 13 12 11 10 8 7 6 5 4 4 3 2 1 1 2 1 1 1 1
16 16 15 14 14 13 11 11 12 11 12 14 14 14 13 12 12 12 11 11 11 12 15 18 19 19 19 19 17 16 14 13 12 10 9 8 7 6 5 4 3 2 1 1 0 1 1 1 1
17 16 16 15 14 13 11 11 12 12 13 14 15 14 12 11 12 12 11 11 11 12 14 16 19 20 19 18 17 16 15 14 12 12 10 9 8 6 6 4 3 2 1 1 0 1 1 1 2
18 17 16 16 16 15 13 12 12 13 13 14 15 14 12 11 11 11 11 11 11 13 13 16 17 20 20 19 18 17 16 14 13 12 11 9 8 7 6 5 4 3 2 2 1 1 1 2 2
19 18 17 17 18 17 15 13 12 13 14 15 15 15 13 12 10 10 9 9 10 13 14 15 17 20 20 20 20 18 17 15 14 12 11 9 8 7 7 6 5 4 3 3 2 2 1 2 2
20 19 19 19 18 17 16 14 12 12 13 15 16 15 13 13 12 10 9 9 10 12 14 17 19 20 21 21 21 20 18 16 15 14 12 10 9 8 7 6 6 5 4 3 2 1 1 2 2
20 21 20 20 20 19 17 16 11 12 13 15 15 15 14 13 12 11 10 9 10 11 12 15 18 20 22 22 21 20 18 17 16 14 13 11 9 9 8 7 7 6 5 3 2 0 1 2 3
21 22 22 21 21 19 17 17 12 12 12 13 14 14 13 12 11 10 9 9 10 11 13 15 17 19 21 21 21 20 19 18 16 14 13 12 10 10 9 8 7 6 5 4 2 1 2 3 4
22 22 22 22 21 20 18 17 13 12 13 13 12 12 12 11 10 9 8 9 9 11 14 17 18 20 21 21 21 20 19 18 16 14 13 12 11 10 10 9 8 7 6 5 4 3 4 4 5
23 22 23 23 22 19 17 16 12 12 12 12 12 11 11 10 9 8 7 7 9 11 15 17 18 20 21 22 22 20 19 17 16 15 13 12 12 11 11 9 8 8 7 6 5 5 6 6 6
23 24 24 24 22 20 17 14 11 12 12 12 12 11 10 10 8 8 8 8 9 11 15 16 18 20 21 22 21 20 18 17 16 15 14 13 12 11 10 10 9 8 8 7 7 7 8 8 8
24 23 23 23 23 21 16 13 11 11 12 12 11 10 9 8 7 8 8 8 9 12 15 17 17 19 21 21 20 20 18 17 16 15 15 14 13 12 11 10 10 9 9 9 9 9 9 10 10
23 24 24 24 23 21 18 13 12 12 12 12 11 10 9 8 7 7 8 8 10 12 14 16 17 19 19 20 20 19 19 18 16 15 15 14 13 12 12 12 11 11 11 11 11 11 11 11 12
26 25 25 24 22 22 19 13 13 13 12 11 11 10 9 9 8 9 9 9 10 12 13 15 16 17 18 19 19 19 19 18 17 15 15 14 13 13 13 13 13 13 13 13 13 13 13 14 14
Wind_Direction
331 328 325 322 315 312 310 311 311 309 314 323 334 355 355 348 339 327 319 300 286 271 259 244 238 217 169 135 118 104 89 77 69 61 50 44 39 35 28 23 19 17 18 17 18 21 24 25 29
323 321 318 317 311 307 305 306 310 316 314 314 328 344 346 347 341 332 324 307 285 263 256 244 234 220 187 150 127 110 90 79 70 56 44 38 32 24 17 12 8 6 7 7 7 11 16 17 19
315 315 314 311 306 304 301 306 310 307 310 310 322 334 337 338 334 331 322 304 284 261 254 243 230 217 199 171 151 129 93 85 75 52 32 24 19 10 6 1 356 356 359 359 359 3 5 5 7
310 310 307 303 299 298 298 302 303 302 309 309 316 330 334 331 329 325 320 304 280 263 252 241 228 218 206 195 186 173 121 99 74 43 20 6 358 354 353 352 347 344 346 349 350 354 355 349 346
304 303 300 296 292 291 295 295 296 298 304 307 317 328 329 325 323 321 315 303 279 260 247 236 228 222 215 213 210 203 195 173 89 21 5 349 340 337 340 341 338 336 335 337 336 341 341 335 333
299 297 293 289 286 287 292 297 296 295 304 314 317 324 324 319 316 315 308 297 276 254 242 235 228 226 221 218 219 218 217 218 234 280 320 332 332 325 327 330 328 325 325 326 326 320 314 311 311
295 292 289 287 284 285 293 294 293 296 303 311 314 319 318 315 310 305 297 287 272 252 238 234 229 228 225 227 227 222 218 220 234 262 294 315 322 321 320 319 316 313 312 316 318 310 306 298 297
293 289 286 285 282 284 290 292 295 295 299 306 311 317 315 310 308 301 289 278 270 250 236 233 231 230 228 227 224 222 221 224 238 255 272 296 308 312 312 313 311 307 305 307 309 305 298 291 286
290 285 284 282 280 282 288 289 294 297 299 304 309 311 312 310 303 298 283 272 260 248 236 234 233 232 230 227 225 224 226 236 245 253 262 283 295 302 308 310 309 304 302 303 303 301 297 289 283
283 279 279 281 283 284 287 289 292 293 298 303 306 307 307 307 300 294 284 272 254 244 239 229 225 228 229 227 225 227 230 240 247 253 258 275 287 293 300 302 304 302 299 299 302 302 298 285 282
279 276 279 282 282 282 283 287 289 290 298 304 307 307 304 303 297 290 282 272 256 243 235 224 220 226 227 224 224 228 230 238 245 251 255 268 276 285 292 296 294 297 295 297 303 304 303 286 279
277 278 279 281 283 283 283 287 288 289 298 302 305 307 306 299 294 289 280 269 256 244 229 225 226 226 225 223 222 221 228 235 239 246 253 261 269 278 286 287 288 291 295 300 299 296 300 289 276
276 278 279 279 282 284 285 286 289 293 296 298 301 303 305 299 296 289 277 265 251 238 231 229 228 222 223 219 219 218 225 230 232 239 247 256 267 271 273 272 277 280 285 289 295 296 297 290 280
275 275 274 276 279 282 284 287 289 295 297 299 301 304 305 302 300 289 274 262 249 236 233 230 224 216 220 220 216 216 220 226 227 234 243 250 259 258 262 262 266 275 278 276 281 297 316 311 291
269 267 267 271 278 280 284 286 291 297 297 299 301 303 304 300 297 291 274 260 250 236 227 223 217 211 212 216 215 216 216 221 227 232 237 244 246 247 249 246 251 263 274 276 286 290 307 315 306
259 258 258 264 267 271 279 287 296 300 301 303 305 305 305 299 298 291 273 266 254 239 224 219 212 211 210 214 215 213 214 220 224 230 232 229 221 221 230 230 228 264 280 287 284 291 302 310 315
249 249 251 255 258 266 276 282 291 300 303 304 305 305 302 298 295 287 276 272 258 237 221 216 212 208 208 210 214 212 211 214 219 222 222 215 209 211 221 221 225 255 274 277 278 291 300 299 302
245 245 245 247 254 263 273 281 286 294 301 304 304 307 304 300 291 285 277 272 260 235 220 212 209 208 206 207 210 210 211 212 214 213 209 207 205 205 209 212 217 237 249 237 267 321 349 346 339
245 245 243 243 250 259 269 279 286 295 302 304 306 311 310 303 294 282 273 269 260 234 218 211 209 205 203 202 205 208 209 211 211 208 203 203 201 200 196 201 204 208 190 159 119 63 44 22 14
242 240 237 241 249 259 267 275 284 292 297 302 304 309 309 300 292 284 275 269 249 232 220 217 210 204 202 203 205 207 207 206 201 198 198 194 195 194 194 197 194 184 170 154 127 94 62 35 20
239 238 239 245 253 261 269 271 278 289 294 299 303 307 306 296 289 280 275 265 246 232 223 215 210 208 206 203 202 203 201 201 198 196 193 190 190 191 190 189 186 177 169 154 136 115 66 22 11
237 240 243 250 258 263 270 272 277 286 294 298 300 302 301 294 289 275 270 261 246 233 222 212 209 205 202 200 199 200 198 198 195 192 190 185 185 188 187 185 182 178 171 158 143 107 31 359 348
237 240 244 251 259 266 272 278 282 287 292 296 296 294 293 294 285 273 266 255 240 229 213 205 203 202 200 197 195 195 195 194 191 187 186 187 190 189 189 189 187 182 180 177 178 196 318 332 334
237 239 245 252 261 266 275 283 289 291 292 293 291 288 288 291 288 279 257 245 234 219 203 198 197 193 192 191 191 191 188 188 187 188 190 192 195 193 194 194 191 191 195 198 210 249 289 304 316
239 242 247 253 261 270 277 282 292 289 288 291 291 286 281 283 287 277 250 238 227 212 199 194 193 188 186 188 188 186 185 187 190 194 193 195 198 198 198 198 199 205 211 218 233 260 278 288 298
240 244 249 257 262 270 276 281 292 286 284 288 289 285 278 277 276 264 249 233 215 202 195 192 188 185 186 187 187 186 187 190 193 195 194 197 200 201 202 206 210 216 223 234 248 264 278 286 294
241 244 251 259 265 271 278 283 287 285 284 287 288 285 282 269 257 241 235 223 203 192 191 188 186 186 187 187 188 188 189 192 193 196 200 204 206 206 209 215 219 228 236 245 255 268 278 284 290
243 247 252 258 266 270 274 280 287 285 283 286 283 282 278 259 241 232 224 212 195 184 183 183 182 184 185 186 188 190 192 193 198 203 206 208 208 212 217 221 228 236 245 253 260 269 277 283 287
245 249 254 259 264 270 270 277 281 282 281 282 279 275 264 250 239 223 213 197 188 183 184 186 186 187 189 191 192 194 197 200 203 206 209 212 217 223 228 230 235 243 250 258 265 271 277 282 287
245 249 253 259 264 266 269 271 273 273 275 269 268 267 258 244 231 217 208 199 190 187 186 189 190 192 194 196 198 199 204 207 211 212 215 220 227 234 237 238 244 249 255 261 267 273 278 282 286
Height
5882 5881 5880 5880 5880 5879 5878 5877 5877 5876 5876 5876 5875 5875 5875 5875 5876 5877 5875 5874 5874 5875 5876 5876 5877 5877 5877 5878 5878 5879 5880 5881 5882 5882 5883 5884 5884 5885 5885 5885 5886 5886 5886 5886 5886 5886 5886 5887 5887
5881 5880 5880 5879 5878 5877 5877 5876 5875 5875 5875 5875 5874 5874 5873 5873 5873 5873 5873 5872 5873 5874 5875 5875 5876 5877 5877 5877 5878 5879 5880 5880 5881 5882 5883 5883 5884 5884 5885 5885 5886 5886 5886 5886 5886 5887 5887 5887 5887
5879 5878 5878 5877 5876 5875 5875 5874 5874 5874 5874 5873 5872 5871 5871 5871 5871 5871 5871 5871 5872 5873 5874 5874 5875 5875 5876 5877 5878 5879 5879 5880 5881 5882 5882 5883 5883 5884 5884 5885 5885 5886 5886 5886 5886 5886 5887 5887 5887
5878 5877 5876 5876 5874 5873 5873 5873 5872 5872 5872 5872 5871 5870 5869 5870 5869 5869 5869 5869 5870 5871 5873 5874 5874 5875 5875 5876 5877 5878 5878 5879 5880 5881 5882 5882 5883 5883 5884 5884 5884 5885 5885 5886 5886 5886 5886 5887 5887
5876 5875 5874 5873 5871 5871 5871 5870 5870 5870 5870 5870 5869 5868 5868 5867 5867 5867 5867 5867 5868 5870 5871 5872 5873 5874 5874 5875 5876 5877 5878 5879 5880 5880 5881 5882 5882 5883 5883 5883 5884 5884 5885 5885 5885 5886 5886 5886 5886
5873 5873 5872 5870 5869 5869 5869 5868 5868 5868 5868 5867 5867 5866 5866 5865 5865 5865 5865 5866 5867 5868 5870 5870 5871 5872 5873 5874 5875 5876 5877 5878 5879 5880 5880 5881 5881 5882 5882 5882 5883 5883 5884 5884 5885 5885 5885 5885 5886
5871 5870 5869 5868 5867 5866 5867 5866 5866 5866 5865 5865 5865 5864 5863 5863 5863 5863 5863 5864 5865 5866 5868 5869 5869 5870 5871 5873 5874 5875 5876 5877 5878 5879 5880 5880 5880 5881 5881 5881 5881 5882 5883 5883 5884 5884 5885 5885 5885
5868 5868 5866 5866 5865 5864 5864 5864 5864 5864 5863 5863 5862 5862 5861 5861 5861 5861 5861 5862 5863 5864 5865 5866 5868 5869 5870 5871 5872 5873 5874 5876 5877 5878 5879 5879 5880 5880 5880 5880 5880 5881 5881 5882 5883 5883 5883 5884 5884
5865 5866 5864 5863 5863 5862 5862 5861 5861 5861 5861 5860 5860 5859 5859 5858 5858 5859 5859 5860 5861 5862 5862 5864 5866 5867 5868 5869 5870 5872 5873 5874 5876 5876 5878 5878 5879 5879 5879 5879 5879 5880 5880 5881 5881 5882 5882 5882 5883
5863 5862 5862 5861 5860 5860 5859 5859 5858 5858 5858 5858 5857 5856 5856 5855 5855 5856 5856 5857 5858 5859 5860 5861 5863 5865 5866 5868 5869 5870 5872 5873 5874 5875 5876 5877 5877 5877 5877 5878 5878 5878 5879 5880 5880 5881 5881 5881 5881
5859 5860 5859 5858 5858 5857 5857 5856 5856 5855 5855 5855 5854 5853 5852 5852 5852 5852 5853 5854 5854 5855 5857 5858 5860 5862 5864 5866 5867 5869 5870 5872 5873 5874 5875 5876 5876 5876 5876 5876 5877 5877 5878 5878 5879 5879 5879 5880 5880
5857 5857 5856 5856 5855 5855 5854 5854 5853 5852 5852 5852 5851 5849 5849 5848 5848 5848 5848 5849 5851 5852 5853 5855 5857 5859 5862 5864 5865 5867 5869 5870 5871 5873 5874 5874 5875 5875 5875 5875 5876 5876 5877 5877 5878 5879 5878 5878 5879
5854 5854 5853 5853 5853 5852 5852 5852 5851 5850 5849 5848 5847 5846 5845 5845 5844 5843 5843 5845 5846 5848 5850 5852 5854 5857 5859 5861 5863 5865 5867 5869 5870 5871 5872 5873 5873 5874 5874 5874 5875 5875 5876 5876 5877 5878 5878 5878 5878
5850 5850 5850 5850 5850 5849 5849 5849 5848 5848 5847 5846 5844 5843 5842 5841 5840 5839 5839 5841 5842 5844 5846 5848 5851 5854 5857 5859 5861 5863 5865 5867 5869 5870 5871 5871 5872 5872 5873 5873 5874 5874 5875 5876 5876 5877 5877 5877 5877
5847 5847 5848 5848 5847 5847 5847 5847 5846 5845 5844 5843 5842 5840 5839 5838 5837 5836 5836 5837 5839 5840 5842 5844 5848 5851 5854 5856 5858 5860 5863 5865 5867 5868 5869 5870 5871 5871 5872 5872 5873 5874 5874 5875 5876 5876 5876 5876 5876
5844 5845 5845 5845 5845 5844 5846 5845 5843 5842 5841 5840 5838 5837 5836 5835 5833 5833 5833 5834 5835 5836 5838 5841 5844 5848 5851 5854 5856 5858 5861 5863 5865 5867 5868 5868 5869 5870 5871 5872 5872 5873 5874 5874 5875 5875 5875 5875 5876
5840 5841 5842 5843 5842 5842 5842 5842 5841 5840 5839 5837 5836 5834 5832 5831 5831 5830 5830 5831 5831 5833 5835 5838 5841 5845 5848 5851 5853 5856 5859 5861 5863 5865 5866 5867 5868 5869 5870 5871 5872 5873 5873 5874 5874 5875 5875 5875 5875
5837 5838 5839 5839 5839 5839 5839 5839 5839 5838 5836 5835 5833 5831 5829 5828 5828 5827 5827 5828 5828 5830 5832 5835 5838 5842 5845 5848 5851 5854 5857 5859 5861 5863 5865 5866 5867 5869 5870 5871 5871 5872 5873 5873 5874 5874 5874 5874 5874
5833 5835 5836 5837 5837 5837 5837 5837 5836 5835 5834 5833 5831 5829 5827 5825 5825 5824 5824 5824 5825 5827 5829 5832 5835 5839 5842 5846 5849 5852 5855 5858 5860 5862 5863 5865 5866 5868 5869 5870 5871 5872 5872 5873 5873 5873 5873 5874 5874
5830 5832 5833 5834 5833 5834 5834 5834 5834 5833 5831 5830 5828 5827 5825 5823 5823 5822 5821 5821 5822 5823 5826 5829 5832 5836 5839 5843 5847 5850 5853 5856 5858 5860 5862 5864 5865 5867 5868 5869 5870 5871 5872 5872 5873 5873 5873 5873 5873
5827 5828 5829 5830 5830 5830 5831 5832 5831 5830 5829 5828 5826 5824 5822 5821 5821 5820 5819 5819 5819 5821 5823 5826 5829 5833 5837 5840 5844 5847 5851 5854 5857 5859 5861 5863 5865 5866 5868 5869 5870 5871 5871 5872 5872 5873 5873 5873 5873
5824 5825 5826 5826 5827 5827 5828 5828 5829 5828 5827 5825 5823 5822 5820 5819 5818 5817 5817 5818 5817 5818 5820 5822 5826 5830 5834 5837 5841 5845 5849 5852 5855 5858 5860 5862 5864 5865 5867 5868 5869 5870 5871 5872 5872 5872 5873 5873 5873
5821 5822 5822 5823 5823 5824 5825 5825 5827 5825 5824 5822 5821 5819 5818 5817 5815 5815 5815 5816 5816 5816 5817 5819 5822 5827 5831 5835 5839 5843 5847 5851 5854 5856 5859 5861 5863 5865 5866 5868 5869 5870 5870 5871 5872 5872 5872 5872 5872
5817 5818 5819 5819 5820 5822 5823 5822 5823 5822 5820 5819 5818 5817 5816 5815 5813 5812 5812 5813 5813 5814 5815 5817 5820 5825 5829 5833 5837 5841 5846 5849 5852 5855 5857 5860 5862 5864 5866 5867 5868 5869 5870 5871 5871 5872 5872 5872 5871
5813 5815 5816 5816 5817 5819 5819 5819 5820 5818 5817 5816 5815 5814 5813 5813 5812 5810 5810 5811 5811 5812 5814 5817 5820 5824 5828 5833 5837 5840 5844 5848 5851 5854 5856 5859 5861 5863 5865 5866 5867 5868 5869 5870 5870 5871 5871 5871 5871
5809 5811 5813 5813 5814 5816 5816 5816 5818 5816 5814 5813 5813 5812 5811 5811 5810 5810 5809 5809 5809 5811 5814 5816 5819 5823 5828 5832 5836 5840 5843 5847 5850 5853 5855 5858 5860 5862 5863 5865 5866 5867 5868 5869 5869 5869 5870 5870 5869
5805 5807 5809 5810 5810 5812 5813 5814 5814 5813 5812 5811 5810 5810 5809 5809 5809 5809 5809 5808 5809 5810 5813 5816 5819 5823 5827 5831 5835 5838 5842 5845 5848 5851 5854 5856 5859 5860 5862 5863 5864 5866 5866 5867 5867 5868 5868 5868 5867
5801 5803 5805 5806 5806 5807 5809 5810 5811 5810 5809 5809 5808 5808 5807 5807 5808 5808 5808 5808 5809 5810 5813 5816 5819 5823 5827 5830 5834 5837 5841 5844 5847 5850 5853 5855 5857 5858 5860 5861 5863 5864 5865 5865 5866 5866 5866 5865 5865
5796 5798 5799 5801 5803 5804 5805 5809 5808 5807 5806 5806 5806 5806 5806 5806 5807 5807 5808 5808 5809 5811 5813 5816 5819 5823 5826 5829 5833 5836 5840 5843 5846 5849 5851 5853 5855 5857 5858 5859 5861 5861 5862 5863 5863 5863 5863 5863 5862
5790 5793 5795 5797 5798 5799 5801 5806 5804 5804 5803 5803 5804 5804 5805 5805 5806 5806 5807 5808 5810 5811 5814 5816 5819 5822 5825 5828 5832 5835 5838 5841 5844 5847 5849 5851 5853 5854 5855 5857 5858 5859 5860 5860 5860 5860 5860 5860 5859